Location: Lourdes
(43.1000°N, 0.0500°W)
Time: 16:41:04
(UTC+00:00)

Cosmos 1666 Rocket - Pass Details

Date: 30 November 2020
Orbit: 604 x 632 km, 82.5° (Epoch: 22 January)

Event Time Altitude Azimuth Distance (km) Brightness Sun altitude
Rises 17:21:07 0° 351° (N) 2,908 6.9 -9.8°
Reaches altitude 10° 17:23:21 10° 352° (N) 2,002 6.1 -10.2°
Maximum altitude 17:27:48 89° 77° (ENE) 633 3.6 -11.0°
Drops below altitude 10° 17:32:15 10° 173° (S) 2,001 6.3 -11.8°
Sets 17:34:29 0° 173° (S) 2,906 7.2 -12.1°
